Time,TemperatureF,DewpointF,PressureIn,WindDirection,WindDirectionDegrees,WindSpeedMPH,WindSpeedGustMPH,Humidity,HourlyPrecipIn,Conditions,Clouds,dailyrainin,SoftwareType,DateUTC
2013-08-27 00:03:00,74.7,70.5,30.01,SE,135,0.0,1.0,87,0.00,,,0.00,meteohub,2013-08-27 05:03:00,
2013-08-27 00:08:00,75.2,71.4,30.02,SE,135,5.0,5.0,88,0.00,,,0.00,meteohub,2013-08-27 05:08:00,
2013-08-27 00:13:00,76.8,73.0,30.02,South,180,7.0,7.0,88,0.00,,,0.00,meteohub,2013-08-27 05:13:00,
2013-08-27 00:18:00,78.3,73.4,30.02,SE,135,8.0,8.0,85,0.00,,,0.00,meteohub,2013-08-27 05:18:00,
2013-08-27 00:23:00,79.7,73.4,30.02,South,180,8.0,8.0,81,0.00,,,0.00,meteohub,2013-08-27 05:23:00,
2013-08-27 00:29:00,80.2,72.7,30.03,WSW,248,8.0,8.0,78,0.00,,,0.00,meteohub,2013-08-27 05:29:00,
2013-08-27 00:34:00,80.8,72.5,30.03,South,180,6.0,8.0,76,0.00,,,0.00,meteohub,2013-08-27 05:34:00,
2013-08-27 00:39:00,81.3,72.3,30.02,SW,225,8.0,8.0,74,0.00,,,0.00,meteohub,2013-08-27 05:39:00,
2013-08-27 00:44:00,81.7,72.1,30.03,West,270,8.0,15.0,73,0.00,,,0.00,meteohub,2013-08-27 05:44:00,
2013-08-27 00:49:00,81.7,71.8,30.02,SW,225,8.0,15.0,72,0.00,,,0.00,meteohub,2013-08-27 05:49:00,
2013-08-27 00:54:00,81.9,72.0,30.02,SW,225,6.0,15.0,72,0.00,,,0.00,meteohub,2013-08-27 05:54:00,
2013-08-27 00:59:00,81.9,72.0,30.02,West,270,10.0,14.0,72,0.00,,,0.00,meteohub,2013-08-27 05:59:00,
2013-08-27 01:04:00,82.0,72.1,30.02,SW,225,11.0,14.0,72,0.00,,,0.00,meteohub,2013-08-27 06:04:00,
2013-08-27 01:09:00,82.0,71.8,30.02,WNW,293,13.0,15.0,71,0.00,,,0.00,meteohub,2013-08-27 06:09:00,
2013-08-27 01:14:00,82.0,71.8,30.02,WSW,248,12.0,15.0,71,0.00,,,0.00,meteohub,2013-08-27 06:14:00,
2013-08-27 01:19:00,82.0,71.8,30.02,NW,315,15.0,15.0,71,0.00,,,0.00,meteohub,2013-08-27 06:19:00,
2013-08-27 01:25:00,81.9,71.6,30.02,West,270,15.0,21.0,71,0.00,,,0.00,meteohub,2013-08-27 06:25:00,
2013-08-27 01:30:00,82.0,71.8,30.01,SW,225,11.0,21.0,71,0.00,,,0.00,meteohub,2013-08-27 06:30:00,
2013-08-27 01:35:00,82.0,72.1,30.01,SW,225,12.0,17.0,72,0.00,,,0.00,meteohub,2013-08-27 06:35:00,
2013-08-27 01:40:00,81.9,72.0,30.01,SW,225,9.0,15.0,72,0.00,,,0.00,meteohub,2013-08-27 06:40:00,
2013-08-27 01:46:00,81.9,72.0,30.00,SW,225,9.0,15.0,72,0.00,,,0.00,meteohub,2013-08-27 06:46:00,
2013-08-27 01:51:00,81.7,72.1,30.01,South,180,15.0,15.0,73,0.00,,,0.00,meteohub,2013-08-27 06:51:00,
2013-08-27 01:56:00,81.7,72.1,30.01,West,270,5.0,15.0,73,0.00,,,0.00,meteohub,2013-08-27 06:56:00,
2013-08-27 02:01:00,81.7,72.1,30.01,NW,315,11.0,15.0,73,0.00,,,0.00,meteohub,2013-08-27 07:01:00,
2013-08-27 02:07:00,81.7,72.1,30.01,SW,225,11.0,17.0,73,0.00,,,0.00,meteohub,2013-08-27 07:07:00,
2013-08-27 02:12:00,81.5,72.3,30.00,West,270,10.0,17.0,74,0.00,,,0.00,meteohub,2013-08-27 07:12:00,
2013-08-27 02:17:00,81.3,72.3,30.00,SW,225,10.0,17.0,74,0.00,,,0.00,meteohub,2013-08-27 07:17:00,
2013-08-27 02:22:00,81.1,72.1,30.00,NW,315,4.0,12.0,74,0.00,,,0.00,meteohub,2013-08-27 07:22:00,
2013-08-27 02:27:00,81.1,72.5,30.00,SW,225,10.0,12.0,75,0.00,,,0.00,meteohub,2013-08-27 07:27:00,
2013-08-27 02:32:00,81.0,72.3,29.99,West,270,4.0,12.0,75,0.00,,,0.00,meteohub,2013-08-27 07:32:00,
2013-08-27 02:37:00,81.0,72.3,29.99,SW,225,12.0,12.0,75,0.00,,,0.00,meteohub,2013-08-27 07:37:00,
2013-08-27 02:42:00,80.8,72.5,29.99,SW,225,5.0,12.0,76,0.00,,,0.00,meteohub,2013-08-27 07:42:00,
2013-08-27 02:47:00,80.6,72.3,29.99,West,270,8.0,12.0,76,0.00,,,0.00,meteohub,2013-08-27 07:47:00,
2013-08-27 02:52:00,80.6,72.3,29.99,NW,315,7.0,12.0,76,0.00,,,0.00,meteohub,2013-08-27 07:52:00,
2013-08-27 02:57:00,80.6,72.3,29.99,SW,225,11.0,11.0,76,0.00,,,0.00,meteohub,2013-08-27 07:57:00,
2013-08-27 03:02:00,80.6,72.3,29.99,West,270,13.0,14.0,76,0.00,,,0.00,meteohub,2013-08-27 08:02:00,
2013-08-27 03:07:00,80.4,72.1,29.99,West,270,12.0,15.0,76,0.00,,,0.00,meteohub,2013-08-27 08:07:00,
2013-08-27 03:12:00,80.4,72.1,29.99,NW,315,11.0,17.0,76,0.00,,,0.00,meteohub,2013-08-27 08:12:00,
2013-08-27 03:17:00,80.4,72.1,29.99,SW,225,7.0,17.0,76,0.00,,,0.00,meteohub,2013-08-27 08:17:00,
2013-08-27 03:22:00,80.4,72.1,29.99,West,270,11.0,17.0,76,0.00,,,0.00,meteohub,2013-08-27 08:22:00,
2013-08-27 03:27:00,80.4,72.1,29.99,NW,315,15.0,15.0,76,0.00,,,0.00,meteohub,2013-08-27 08:27:00,
2013-08-27 03:32:00,80.4,72.1,29.99,West,270,6.0,15.0,76,0.00,,,0.00,meteohub,2013-08-27 08:32:00,
2013-08-27 03:37:00,80.2,72.0,29.99,North,0,11.0,15.0,76,0.00,,,0.00,meteohub,2013-08-27 08:37:00,
2013-08-27 03:42:00,80.2,72.0,29.99,West,270,9.0,15.0,76,0.00,,,0.00,meteohub,2013-08-27 08:42:00,
2013-08-27 03:47:00,80.2,72.0,29.99,SW,225,11.0,12.0,76,0.00,,,0.00,meteohub,2013-08-27 08:47:00,
2013-08-27 03:52:00,80.1,72.1,29.99,SW,225,7.0,12.0,77,0.00,,,0.00,meteohub,2013-08-27 08:52:00,
2013-08-27 03:57:00,80.1,72.1,30.00,NW,315,8.0,12.0,77,0.00,,,0.00,meteohub,2013-08-27 08:57:00,
2013-08-27 04:02:00,80.1,72.1,30.01,SW,225,7.0,13.0,77,0.00,,,0.00,meteohub,2013-08-27 09:02:00,
2013-08-27 04:07:00,79.7,69.4,30.02,NE,45,6.0,13.0,71,0.00,,,0.00,meteohub,2013-08-27 09:07:00,
2013-08-27 04:12:00,77.2,70.9,30.03,NE,45,14.0,15.0,81,0.00,,,0.00,meteohub,2013-08-27 09:12:00,
2013-08-27 04:17:00,75.9,70.7,30.03,North,0,4.0,15.0,84,0.00,,,0.00,meteohub,2013-08-27 09:17:00,
2013-08-27 04:22:00,75.4,71.6,30.03,North,0,13.0,16.0,88,0.00,,,0.00,meteohub,2013-08-27 09:22:00,
2013-08-27 04:27:00,75.2,71.4,30.04,North,0,12.0,17.0,88,0.00,,,0.00,meteohub,2013-08-27 09:27:00,
2013-08-27 04:32:00,74.3,70.9,30.04,NE,45,15.0,17.0,89,0.00,,,0.00,meteohub,2013-08-27 09:32:00,
2013-08-27 04:37:00,73.4,70.5,30.04,East,90,8.0,20.0,91,0.00,,,0.00,meteohub,2013-08-27 09:37:00,
2013-08-27 04:42:00,72.9,70.7,30.04,East,90,8.0,20.0,93,0.00,,,0.00,meteohub,2013-08-27 09:42:00,
2013-08-27 04:47:00,72.3,70.5,30.04,North,0,7.0,20.0,94,0.00,,,0.00,meteohub,2013-08-27 09:47:00,
2013-08-27 04:52:00,72.0,70.7,30.03,NE,45,10.0,12.0,96,0.00,,,0.00,meteohub,2013-08-27 09:52:00,
2013-08-27 04:57:00,72.0,71.1,30.03,North,0,8.0,12.0,97,0.00,,,0.00,meteohub,2013-08-27 09:57:00,
2013-08-27 05:02:00,71.8,71.2,30.03,NE,45,8.0,11.0,98,0.00,,,0.00,meteohub,2013-08-27 10:02:00,
2013-08-27 05:07:00,71.6,71.2,30.04,North,0,3.0,11.0,99,0.00,,,0.00,meteohub,2013-08-27 10:07:00,
2013-08-27 05:12:00,71.8,71.4,30.03,East,90,8.0,9.0,99,0.00,,,0.00,meteohub,2013-08-27 10:12:00,
2013-08-27 05:17:00,71.8,71.4,30.03,NE,45,4.0,11.0,99,0.00,,,0.00,meteohub,2013-08-27 10:17:00,
2013-08-27 05:22:00,71.6,71.2,30.04,East,90,2.0,11.0,99,0.00,,,0.00,meteohub,2013-08-27 10:22:00,
2013-08-27 05:27:00,71.6,71.2,30.03,NNE,23,8.0,11.0,99,0.00,,,0.00,meteohub,2013-08-27 10:27:00,
2013-08-27 05:32:00,71.6,71.2,30.03,NE,45,4.0,8.0,99,0.00,,,0.00,meteohub,2013-08-27 10:32:00,
2013-08-27 05:37:00,71.6,71.2,30.03,NE,45,6.0,8.0,99,0.00,,,0.00,meteohub,2013-08-27 10:37:00,
2013-08-27 05:42:00,71.4,71.1,30.04,East,90,5.0,8.0,99,0.00,,,0.00,meteohub,2013-08-27 10:42:00,
2013-08-27 05:47:00,71.4,71.1,30.03,NE,45,5.0,7.0,99,0.00,,,0.00,meteohub,2013-08-27 10:47:00,
2013-08-27 05:52:00,71.2,70.9,30.03,East,90,4.0,7.0,99,0.00,,,0.00,meteohub,2013-08-27 10:52:00,
2013-08-27 05:57:00,71.2,70.9,30.03,NE,45,3.0,6.0,99,0.00,,,0.00,meteohub,2013-08-27 10:57:00,
2013-08-27 06:02:00,71.1,70.7,30.03,East,90,4.0,6.0,99,0.00,,,0.00,meteohub,2013-08-27 11:02:00,
2013-08-27 06:07:00,71.1,70.7,30.03,East,90,4.0,4.0,99,0.00,,,0.00,meteohub,2013-08-27 11:07:00,
2013-08-27 06:12:00,71.1,70.7,30.03,East,90,3.0,6.0,99,0.00,,,0.00,meteohub,2013-08-27 11:12:00,
2013-08-27 06:17:00,70.9,70.5,30.04,SE,135,0.0,6.0,99,0.00,,,0.00,meteohub,2013-08-27 11:17:00,
2013-08-27 06:22:00,70.7,70.3,30.03,SE,135,0.0,6.0,99,0.00,,,0.00,meteohub,2013-08-27 11:22:00,
2013-08-27 06:27:00,70.9,70.5,30.04,SE,135,0.0,3.0,99,0.00,,,0.00,meteohub,2013-08-27 11:27:00,
2013-08-27 06:32:00,70.7,70.3,30.03,SE,135,0.0,1.0,99,0.00,,,0.00,meteohub,2013-08-27 11:32:00,
2013-08-27 06:37:00,70.7,70.3,30.03,SE,135,2.0,0.0,99,0.00,,,0.00,meteohub,2013-08-27 11:37:00,
2013-08-27 06:42:00,70.7,70.3,30.03,South,180,0.0,5.0,99,0.00,,,0.00,meteohub,2013-08-27 11:42:00,
2013-08-27 06:47:00,70.7,70.3,30.03,SE,135,2.0,5.0,99,0.00,,,0.00,meteohub,2013-08-27 11:47:00,
2013-08-27 06:52:00,70.7,70.3,30.03,SE,135,5.0,5.0,99,0.00,,,0.00,meteohub,2013-08-27 11:52:00,
2013-08-27 06:57:00,70.7,70.3,30.03,SE,135,4.0,6.0,99,0.00,,,0.00,meteohub,2013-08-27 11:57:00,
2013-08-27 07:02:00,70.9,70.5,30.03,South,180,5.0,6.0,99,0.00,,,0.00,meteohub,2013-08-27 12:02:00,
2013-08-27 07:07:00,70.9,70.5,30.03,SE,135,6.0,8.0,99,0.00,,,0.00,meteohub,2013-08-27 12:07:00,
2013-08-27 07:12:00,71.1,70.7,30.03,SE,135,6.0,8.0,99,0.00,,,0.00,meteohub,2013-08-27 12:12:00,
2013-08-27 07:17:00,71.2,70.9,30.03,SW,225,8.0,10.0,99,0.00,,,0.00,meteohub,2013-08-27 12:17:00,
2013-08-27 07:22:00,71.4,71.1,30.03,SW,225,8.0,10.0,99,0.00,,,0.00,meteohub,2013-08-27 12:22:00,
2013-08-27 07:27:00,71.6,71.2,30.03,South,180,7.0,10.0,99,0.00,,,0.00,meteohub,2013-08-27 12:27:00,
2013-08-27 07:32:00,71.6,71.2,30.03,South,180,5.0,10.0,99,0.00,,,0.00,meteohub,2013-08-27 12:32:00,
2013-08-27 07:37:00,71.8,71.4,30.03,South,180,10.0,10.0,99,0.00,,,0.00,meteohub,2013-08-27 12:37:00,
2013-08-27 07:42:00,71.8,71.4,30.03,SE,135,11.0,11.0,99,0.00,,,0.00,meteohub,2013-08-27 12:42:00,
2013-08-27 07:47:00,72.0,71.6,30.03,SSE,158,5.0,11.0,99,0.00,,,0.00,meteohub,2013-08-27 12:47:00,
2013-08-27 07:52:00,72.1,71.8,30.03,SE,135,10.0,11.0,99,0.00,,,0.00,meteohub,2013-08-27 12:52:00,
2013-08-27 07:57:00,72.0,71.6,30.02,SE,135,11.0,11.0,99,0.00,,,0.00,meteohub,2013-08-27 12:57:00,
2013-08-27 08:02:00,72.1,71.8,30.02,SE,135,9.0,12.0,99,0.00,,,0.00,meteohub,2013-08-27 13:02:00,
2013-08-27 08:07:00,72.1,71.8,30.02,SE,135,11.0,12.0,99,0.00,,,0.00,meteohub,2013-08-27 13:07:00,
2013-08-27 08:12:00,72.1,71.8,30.02,South,180,10.0,12.0,99,0.00,,,0.00,meteohub,2013-08-27 13:12:00,
2013-08-27 08:17:00,72.1,71.8,30.01,South,180,8.0,11.0,99,0.00,,,0.00,meteohub,2013-08-27 13:17:00,
2013-08-27 08:22:00,72.3,72.0,30.02,SE,135,10.0,11.0,99,0.00,,,0.00,meteohub,2013-08-27 13:22:00,
2013-08-27 08:27:00,72.3,72.0,30.02,SE,135,9.0,11.0,99,0.00,,,0.00,meteohub,2013-08-27 13:27:00,
2013-08-27 08:32:00,72.5,72.1,30.02,SE,135,14.0,14.0,99,0.00,,,0.00,meteohub,2013-08-27 13:32:00,
2013-08-27 08:37:00,72.9,72.5,30.02,South,180,11.0,14.0,99,0.00,,,0.00,meteohub,2013-08-27 13:37:00,
2013-08-27 08:42:00,73.0,72.7,30.01,SE,135,13.0,14.0,99,0.00,,,0.00,meteohub,2013-08-27 13:42:00,
2013-08-27 08:47:00,73.2,72.9,30.01,SSE,158,12.0,14.0,99,0.00,,,0.00,meteohub,2013-08-27 13:47:00,
2013-08-27 08:52:00,73.4,73.0,30.01,South,180,9.0,13.0,99,0.00,,,0.00,meteohub,2013-08-27 13:52:00,
2013-08-27 08:57:00,73.6,73.2,30.01,SE,135,8.0,13.0,99,0.00,,,0.00,meteohub,2013-08-27 13:57:00,
2013-08-27 09:02:00,73.8,73.4,30.01,South,180,10.0,14.0,99,0.00,,,0.00,meteohub,2013-08-27 14:02:00,
2013-08-27 09:07:00,73.8,73.4,30.01,SE,135,11.0,15.0,99,0.00,,,0.00,meteohub,2013-08-27 14:07:00,
2013-08-27 09:12:00,73.8,73.4,30.00,South,180,14.0,15.0,99,0.00,,,0.00,meteohub,2013-08-27 14:12:00,
2013-08-27 09:17:00,73.6,73.2,30.00,SE,135,14.0,15.0,99,0.00,,,0.00,meteohub,2013-08-27 14:17:00,
2013-08-27 09:22:00,73.4,73.0,30.00,SW,225,11.0,16.0,99,0.00,,,0.00,meteohub,2013-08-27 14:22:00,
2013-08-27 09:27:00,73.6,73.2,29.99,South,180,8.0,16.0,99,0.00,,,0.00,meteohub,2013-08-27 14:27:00,
2013-08-27 09:32:00,74.1,73.8,29.99,SE,135,6.0,16.0,99,0.00,,,0.00,meteohub,2013-08-27 14:32:00,
2013-08-27 09:37:00,74.8,74.3,29.99,South,180,7.0,11.0,98,0.00,,,0.00,meteohub,2013-08-27 14:37:00,
2013-08-27 09:42:00,75.7,74.5,29.99,South,180,6.0,8.0,96,0.00,,,0.00,meteohub,2013-08-27 14:42:00,
2013-08-27 09:47:00,76.6,74.8,29.99,SE,135,7.0,7.0,94,0.00,,,0.00,meteohub,2013-08-27 14:47:00,
2013-08-27 09:52:00,77.2,74.7,29.99,SE,135,6.0,8.0,92,0.00,,,0.00,meteohub,2013-08-27 14:52:00,
2013-08-27 09:57:00,77.7,74.8,29.98,South,180,6.0,8.0,91,0.00,,,0.00,meteohub,2013-08-27 14:57:00,
2013-08-27 10:02:00,77.9,74.5,29.98,SE,135,8.0,8.0,89,0.00,,,0.00,meteohub,2013-08-27 15:02:00,
2013-08-27 10:07:00,78.1,74.3,29.98,SE,135,8.0,9.0,88,0.00,,,0.00,meteohub,2013-08-27 15:07:00,
2013-08-27 10:12:00,77.5,73.8,29.98,South,180,10.0,10.0,88,0.00,,,0.00,meteohub,2013-08-27 15:12:00,
2013-08-27 10:17:00,77.0,73.6,29.97,SE,135,9.0,11.0,89,0.00,,,0.00,meteohub,2013-08-27 15:17:00,
2013-08-27 10:22:00,77.0,73.8,29.97,South,180,10.0,12.0,90,0.00,,,0.00,meteohub,2013-08-27 15:22:00,
2013-08-27 10:27:00,77.2,73.8,29.97,SE,135,8.0,12.0,89,0.00,,,0.00,meteohub,2013-08-27 15:27:00,
2013-08-27 10:32:00,77.4,73.9,29.97,South,180,6.0,12.0,89,0.00,,,0.00,meteohub,2013-08-27 15:32:00,
2013-08-27 10:37:00,78.1,74.3,29.96,SSE,158,7.0,10.0,88,0.00,,,0.00,meteohub,2013-08-27 15:37:00,
2013-08-27 10:42:00,78.8,73.6,29.97,SE,135,10.0,10.0,84,0.00,,,0.00,meteohub,2013-08-27 15:42:00,
2013-08-27 10:47:00,79.0,73.4,29.96,SE,135,8.0,11.0,83,0.00,,,0.00,meteohub,2013-08-27 15:47:00,
2013-08-27 10:52:00,79.2,73.2,29.96,SE,135,6.0,11.0,82,0.00,,,0.00,meteohub,2013-08-27 15:52:00,
2013-08-27 10:57:00,79.2,72.9,29.96,SE,135,8.0,11.0,81,0.00,,,0.00,meteohub,2013-08-27 15:57:00,
2013-08-27 11:02:00,79.5,73.2,29.96,SE,135,8.0,11.0,81,0.00,,,0.00,meteohub,2013-08-27 16:02:00,
2013-08-27 11:07:00,80.2,73.0,29.96,South,180,2.0,11.0,79,0.00,,,0.00,meteohub,2013-08-27 16:07:00,
2013-08-27 11:12:00,81.5,73.6,29.96,SE,135,4.0,11.0,77,0.00,,,0.00,meteohub,2013-08-27 16:12:00,
2013-08-27 11:17:00,81.7,72.5,29.96,SE,135,0.0,8.0,74,0.00,,,0.00,meteohub,2013-08-27 16:17:00,
2013-08-27 11:22:00,81.9,72.7,29.96,SE,135,5.0,8.0,74,0.00,,,0.00,meteohub,2013-08-27 16:22:00,
2013-08-27 11:27:00,81.3,71.8,29.96,SE,135,4.0,6.0,73,0.00,,,0.00,meteohub,2013-08-27 16:27:00,
2013-08-27 11:32:00,80.4,71.4,29.96,SE,135,7.0,7.0,74,0.00,,,0.00,meteohub,2013-08-27 16:32:00,
2013-08-27 11:37:00,80.2,71.2,29.96,SE,135,7.0,7.0,74,0.00,,,0.00,meteohub,2013-08-27 16:37:00,
2013-08-27 11:42:00,80.6,71.6,29.96,SE,135,6.0,8.0,74,0.00,,,0.00,meteohub,2013-08-27 16:42:00,
2013-08-27 11:47:00,81.9,72.7,29.96,SE,135,4.0,8.0,74,0.00,,,0.00,meteohub,2013-08-27 16:47:00,
2013-08-27 11:52:00,83.3,72.1,29.96,SE,135,6.0,8.0,69,0.00,,,0.00,meteohub,2013-08-27 16:52:00,
2013-08-27 11:57:00,83.7,72.0,29.95,East,90,7.0,9.0,68,0.00,,,0.00,meteohub,2013-08-27 16:57:00,
2013-08-27 12:02:00,83.3,71.6,29.95,ESE,113,6.0,9.0,68,0.00,,,0.00,meteohub,2013-08-27 17:02:00,
2013-08-27 12:07:00,83.5,71.4,29.95,SE,135,6.0,9.0,67,0.00,,,0.00,meteohub,2013-08-27 17:07:00,
2013-08-27 12:12:00,83.8,71.8,29.95,SE,135,6.0,8.0,67,0.00,,,0.00,meteohub,2013-08-27 17:12:00,
2013-08-27 12:17:00,83.5,71.4,29.95,SE,135,5.0,8.0,67,0.00,,,0.00,meteohub,2013-08-27 17:17:00,
2013-08-27 12:22:00,83.8,71.8,29.94,South,180,4.0,8.0,67,0.00,,,0.00,meteohub,2013-08-27 17:22:00,
2013-08-27 12:27:00,84.0,72.3,29.94,SE,135,7.0,10.0,68,0.00,,,0.00,meteohub,2013-08-27 17:27:00,
2013-08-27 12:32:00,84.7,72.1,29.94,East,90,8.0,10.0,66,0.00,,,0.00,meteohub,2013-08-27 17:32:00,
2013-08-27 12:37:00,84.2,71.2,29.94,South,180,10.0,10.0,65,0.00,,,0.00,meteohub,2013-08-27 17:37:00,
2013-08-27 12:42:00,82.6,71.4,29.94,South,180,9.0,10.0,69,0.00,,,0.00,meteohub,2013-08-27 17:42:00,
2013-08-27 12:47:00,82.8,71.6,29.94,SE,135,5.0,10.0,69,0.00,,,0.00,meteohub,2013-08-27 17:47:00,
2013-08-27 12:52:00,82.9,71.2,29.94,SE,135,6.0,10.0,68,0.00,,,0.00,meteohub,2013-08-27 17:52:00,
2013-08-27 12:57:00,83.7,71.6,29.93,SE,135,9.0,10.0,67,0.00,,,0.00,meteohub,2013-08-27 17:57:00,
2013-08-27 13:02:00,83.1,71.1,29.93,SE,135,13.0,13.0,67,0.00,,,0.00,meteohub,2013-08-27 18:02:00,
2013-08-27 13:07:00,82.9,71.2,29.92,South,180,10.0,13.0,68,0.00,,,0.00,meteohub,2013-08-27 18:07:00,
2013-08-27 13:12:00,83.1,72.0,29.92,SE,135,8.0,13.0,69,0.00,,,0.00,meteohub,2013-08-27 18:12:00,
2013-08-27 13:17:00,83.3,71.2,29.92,SE,135,11.0,13.0,67,0.00,,,0.00,meteohub,2013-08-27 18:17:00,
2013-08-27 13:22:00,81.9,71.6,29.92,SE,135,9.0,14.0,71,0.00,,,0.00,meteohub,2013-08-27 18:22:00,
2013-08-27 13:27:00,82.2,72.0,29.91,South,180,11.0,14.0,71,0.00,,,0.00,meteohub,2013-08-27 18:27:00,
2013-08-27 13:32:00,82.0,71.8,29.91,South,180,13.0,14.0,71,0.00,,,0.00,meteohub,2013-08-27 18:32:00,
2013-08-27 13:37:00,82.4,71.6,29.91,South,180,8.0,13.0,70,0.00,,,0.00,meteohub,2013-08-27 18:37:00,
2013-08-27 13:42:00,81.7,70.9,29.91,SE,135,11.0,13.0,70,0.00,,,0.00,meteohub,2013-08-27 18:42:00,
2013-08-27 13:47:00,82.4,71.6,29.90,South,180,8.0,13.0,70,0.00,,,0.00,meteohub,2013-08-27 18:47:00,
2013-08-27 13:53:00,84.4,72.1,29.90,SE,135,7.0,11.0,67,0.00,,,0.00,meteohub,2013-08-27 18:53:00,
2013-08-27 13:58:00,84.9,71.4,29.90,SE,135,7.0,11.0,64,0.00,,,0.00,meteohub,2013-08-27 18:58:00,
2013-08-27 14:03:00,85.5,72.0,29.90,SE,135,10.0,11.0,64,0.00,,,0.00,meteohub,2013-08-27 19:03:00,
2013-08-27 14:08:00,85.1,71.1,29.89,SE,135,7.0,11.0,63,0.00,,,0.00,meteohub,2013-08-27 19:08:00,
2013-08-27 14:14:00,84.0,71.1,29.89,SSE,158,10.0,11.0,65,0.00,,,0.00,meteohub,2013-08-27 19:14:00,
2013-08-27 14:19:00,85.8,73.2,29.88,SE,135,11.0,11.0,66,0.00,,,0.00,meteohub,2013-08-27 19:19:00,
2013-08-27 14:24:00,89.6,73.4,29.88,South,180,16.0,16.0,59,0.00,,,0.00,meteohub,2013-08-27 19:24:00,
2013-08-27 14:29:00,92.5,71.8,29.88,SE,135,16.0,16.0,51,0.00,,,0.00,meteohub,2013-08-27 19:29:00,
2013-08-27 14:34:00,88.9,70.2,29.88,SE,135,11.0,21.0,54,0.00,,,0.00,meteohub,2013-08-27 19:34:00,
2013-08-27 14:39:00,88.7,70.5,29.87,SE,135,8.0,21.0,55,0.00,,,0.00,meteohub,2013-08-27 19:39:00,
2013-08-27 14:45:00,89.6,71.8,29.87,South,180,13.0,21.0,56,0.00,,,0.00,meteohub,2013-08-27 19:45:00,
2013-08-27 14:50:00,89.1,69.1,29.87,East,90,8.0,15.0,52,0.00,,,0.00,meteohub,2013-08-27 19:50:00,
2013-08-27 14:55:00,88.7,72.0,29.87,SE,135,12.0,21.0,58,0.00,,,0.00,meteohub,2013-08-27 19:55:00,
2013-08-27 15:00:00,91.8,73.2,29.86,SE,135,11.0,21.0,55,0.00,,,0.00,meteohub,2013-08-27 20:00:00,
2013-08-27 15:05:00,94.3,72.9,29.86,SE,135,14.0,19.0,50,0.00,,,0.00,meteohub,2013-08-27 20:05:00,
2013-08-27 15:10:00,95.2,71.8,29.86,SW,225,15.0,19.0,47,0.00,,,0.00,meteohub,2013-08-27 20:10:00,
2013-08-27 15:15:00,95.7,71.6,29.86,SW,225,17.0,19.0,46,0.00,,,0.00,meteohub,2013-08-27 20:15:00,
2013-08-27 15:20:00,95.7,71.6,29.86,SW,225,14.0,20.0,46,0.00,,,0.00,meteohub,2013-08-27 20:20:00,
2013-08-27 15:26:00,95.9,71.8,29.86,SE,135,12.0,20.0,46,0.00,,,0.00,meteohub,2013-08-27 20:26:00,
2013-08-27 15:31:00,95.9,72.5,29.86,West,270,7.0,20.0,47,0.00,,,0.00,meteohub,2013-08-27 20:31:00,
2013-08-27 15:36:00,96.1,71.2,29.86,South,180,19.0,20.0,45,0.00,,,0.00,meteohub,2013-08-27 20:36:00,
2013-08-27 15:41:00,95.9,71.1,29.86,SW,225,27.0,27.0,45,0.00,,,0.00,meteohub,2013-08-27 20:41:00,
2013-08-27 15:46:00,96.1,72.0,29.86,South,180,15.0,27.0,46,0.00,,,0.00,meteohub,2013-08-27 20:46:00,
2013-08-27 15:51:00,96.3,72.1,29.86,SE,135,11.0,27.0,46,0.00,,,0.00,meteohub,2013-08-27 20:51:00,
2013-08-27 15:56:00,95.9,71.8,29.86,South,180,15.0,27.0,46,0.00,,,0.00,meteohub,2013-08-27 20:56:00,
2013-08-27 16:01:00,95.9,71.8,29.86,South,180,18.0,24.0,46,0.00,,,0.00,meteohub,2013-08-27 21:01:00,
2013-08-27 16:06:00,95.9,72.5,29.86,SE,135,15.0,24.0,47,0.00,,,0.00,meteohub,2013-08-27 21:06:00,
2013-08-27 16:17:00,95.9,72.5,29.86,South,180,15.0,20.0,47,0.00,,,0.00,meteohub,2013-08-27 21:17:00,
2013-08-27 16:22:00,95.9,71.8,29.86,SW,225,20.0,20.0,46,0.00,,,0.00,meteohub,2013-08-27 21:22:00,
2013-08-27 16:23:00,95.9,72.5,29.87,SE,135,13.0,20.0,47,0.00,,,0.00,meteohub,2013-08-27 21:23:00,
2013-08-27 16:37:00,95.7,73.6,29.86,NW,315,13.0,23.0,49,0.00,,,0.00,meteohub,2013-08-27 21:37:00,
2013-08-27 16:42:00,95.5,73.4,29.87,West,270,8.0,23.0,49,0.00,,,0.00,meteohub,2013-08-27 21:42:00,
2013-08-27 16:47:00,96.1,73.8,29.87,SW,225,0.0,23.0,49,0.00,,,0.00,meteohub,2013-08-27 21:47:00,
2013-08-27 16:52:00,95.4,73.2,29.86,West,270,12.0,17.0,49,0.00,,,0.00,meteohub,2013-08-27 21:52:00,
2013-08-27 16:57:00,94.8,73.2,29.87,SW,225,13.0,17.0,50,0.00,,,0.00,meteohub,2013-08-27 21:57:00,
2013-08-27 17:03:00,94.3,72.9,29.87,NNW,338,15.0,18.0,50,0.00,,,0.00,meteohub,2013-08-27 22:03:00,
2013-08-27 17:08:00,94.5,72.9,29.87,WNW,293,11.0,21.0,50,0.00,,,0.00,meteohub,2013-08-27 22:08:00,
2013-08-27 17:13:00,94.6,72.0,29.87,SW,225,12.0,21.0,48,0.00,,,0.00,meteohub,2013-08-27 22:13:00,
2013-08-27 17:18:00,94.6,72.5,29.86,SW,225,13.0,25.0,49,0.00,,,0.00,meteohub,2013-08-27 22:18:00,
2013-08-27 17:23:00,94.3,72.1,29.86,West,270,19.0,25.0,49,0.00,,,0.00,meteohub,2013-08-27 22:23:00,
2013-08-27 17:28:00,93.9,72.5,29.86,SW,225,14.0,25.0,50,0.00,,,0.00,meteohub,2013-08-27 22:28:00,
2013-08-27 17:33:00,93.9,73.0,29.87,West,270,10.0,23.0,51,0.00,,,0.00,meteohub,2013-08-27 22:33:00,
2013-08-27 17:38:00,93.9,73.0,29.87,SW,225,15.0,23.0,51,0.00,,,0.00,meteohub,2013-08-27 22:38:00,
2013-08-27 17:43:00,93.7,72.9,29.87,SW,225,16.0,21.0,51,0.00,,,0.00,meteohub,2013-08-27 22:43:00,
2013-08-27 17:48:00,93.6,73.2,29.88,SW,225,8.0,22.0,52,0.00,,,0.00,meteohub,2013-08-27 22:48:00,
2013-08-27 17:53:00,93.4,73.8,29.87,SW,225,16.0,22.0,53,0.00,,,0.00,meteohub,2013-08-27 22:53:00,
2013-08-27 17:58:00,93.2,73.6,29.88,West,270,12.0,20.0,53,0.00,,,0.00,meteohub,2013-08-27 22:58:00,
2013-08-27 18:03:00,93.4,73.8,29.88,West,270,4.0,20.0,53,0.00,,,0.00,meteohub,2013-08-27 23:03:00,
2013-08-27 18:08:00,93.4,73.8,29.88,SW,225,8.0,16.0,53,0.00,,,0.00,meteohub,2013-08-27 23:08:00,
2013-08-27 18:13:00,93.2,74.1,29.88,West,270,14.0,15.0,54,0.00,,,0.00,meteohub,2013-08-27 23:13:00,
2013-08-27 18:18:00,92.8,73.8,29.88,South,180,8.0,15.0,54,0.00,,,0.00,meteohub,2013-08-27 23:18:00,
2013-08-27 18:23:00,92.7,74.1,29.87,West,270,11.0,15.0,55,0.00,,,0.00,meteohub,2013-08-27 23:23:00,
2013-08-27 18:24:00,92.7,74.1,29.87,SW,225,13.0,15.0,55,0.00,,,0.00,meteohub,2013-08-27 23:24:00,
2013-08-27 18:29:00,92.5,74.5,29.88,WSW,248,6.0,15.0,56,0.00,,,0.00,meteohub,2013-08-27 23:29:00,
2013-08-27 18:35:00,92.5,74.5,29.87,SW,225,11.0,15.0,56,0.00,,,0.00,meteohub,2013-08-27 23:35:00,
2013-08-27 18:40:00,92.1,74.7,29.87,SW,225,7.0,14.0,57,0.00,,,0.00,meteohub,2013-08-27 23:40:00,
2013-08-27 18:45:00,91.9,74.5,29.87,SW,225,5.0,14.0,57,0.00,,,0.00,meteohub,2013-08-27 23:45:00,
2013-08-27 18:50:00,91.9,74.5,29.88,West,270,8.0,11.0,57,0.00,,,0.00,meteohub,2013-08-27 23:50:00,
2013-08-27 18:55:00,91.6,74.7,29.88,SW,225,8.0,11.0,58,0.00,,,0.00,meteohub,2013-08-27 23:55:00,
2013-08-27 19:00:00,91.4,75.0,29.88,SW,225,7.0,10.0,59,0.00,,,0.00,meteohub,2013-08-28 00:00:00,
2013-08-27 19:05:00,91.2,74.8,29.88,West,270,5.0,10.0,59,0.00,,,0.00,meteohub,2013-08-28 00:05:00,
2013-08-27 19:10:00,91.0,74.7,29.88,West,270,4.0,10.0,59,0.00,,,0.00,meteohub,2013-08-28 00:10:00,
2013-08-27 19:15:00,90.5,74.7,29.88,West,270,8.0,9.0,60,0.00,,,0.00,meteohub,2013-08-28 00:15:00,
2013-08-27 19:20:00,90.1,74.8,29.88,West,270,6.0,9.0,61,0.00,,,0.00,meteohub,2013-08-28 00:20:00,
2013-08-27 19:25:00,89.8,75.0,29.88,SW,225,5.0,9.0,62,0.00,,,0.00,meteohub,2013-08-28 00:25:00,
2013-08-27 19:30:00,89.6,75.4,29.88,SW,225,3.0,9.0,63,0.00,,,0.00,meteohub,2013-08-28 00:30:00,
2013-08-27 19:35:00,89.2,75.0,29.88,West,270,6.0,9.0,63,0.00,,,0.00,meteohub,2013-08-28 00:35:00,
2013-08-27 19:40:00,89.1,75.2,29.88,SW,225,10.0,10.0,64,0.00,,,0.00,meteohub,2013-08-28 00:40:00,
2013-08-27 19:45:00,88.9,75.2,29.89,SW,225,8.0,11.0,64,0.00,,,0.00,meteohub,2013-08-28 00:45:00,
2013-08-27 19:50:00,88.7,75.4,29.89,West,270,6.0,11.0,65,0.00,,,0.00,meteohub,2013-08-28 00:50:00,
2013-08-27 19:55:00,88.5,75.2,29.88,West,270,6.0,10.0,65,0.00,,,0.00,meteohub,2013-08-28 00:55:00,
2013-08-27 20:00:00,88.5,75.2,29.88,East,90,7.0,12.0,65,0.00,,,0.00,meteohub,2013-08-28 01:00:00,
2013-08-27 20:05:00,88.3,75.6,29.88,SW,225,8.0,14.0,66,0.00,,,0.00,meteohub,2013-08-28 01:05:00,
2013-08-27 20:10:00,88.2,75.4,29.88,SW,225,10.0,14.0,66,0.00,,,0.00,meteohub,2013-08-28 01:10:00,
2013-08-27 20:15:00,88.0,74.7,29.89,NE,45,5.0,14.0,65,0.00,,,0.00,meteohub,2013-08-28 01:15:00,
2013-08-27 20:19:00,84.7,68.9,29.89,NE,45,2.0,14.0,59,0.00,,,0.00,meteohub,2013-08-28 01:19:00,
2013-08-27 20:22:00,82.4,68.0,29.90,NE,45,7.0,12.0,62,0.00,,,0.00,meteohub,2013-08-28 01:22:00,
2013-08-27 20:27:00,78.8,69.8,29.90,North,0,8.0,10.0,74,0.00,,,0.00,meteohub,2013-08-28 01:27:00,
2013-08-27 20:34:00,77.9,71.2,29.90,West,270,4.0,9.0,80,0.00,,,0.00,meteohub,2013-08-28 01:34:00,
2013-08-27 20:39:00,77.9,71.6,29.91,North,0,5.0,9.0,81,0.00,,,0.00,meteohub,2013-08-28 01:39:00,
2013-08-27 20:45:00,77.7,71.4,29.92,NW,315,12.0,12.0,81,0.00,,,0.00,meteohub,2013-08-28 01:45:00,
2013-08-27 20:50:00,77.4,72.1,29.92,NW,315,12.0,12.0,84,0.00,,,0.00,meteohub,2013-08-28 01:50:00,
2013-08-27 20:55:00,77.9,73.0,29.93,North,0,14.0,14.0,85,0.00,,,0.00,meteohub,2013-08-28 01:55:00,
2013-08-27 21:00:00,78.4,73.6,29.93,North,0,7.0,13.0,85,0.00,,,0.00,meteohub,2013-08-28 02:00:00,
2013-08-27 21:05:00,78.8,73.6,29.93,NE,45,11.0,15.0,84,0.00,,,0.00,meteohub,2013-08-28 02:05:00,
2013-08-27 21:10:00,79.0,73.8,29.92,NW,315,8.0,15.0,84,0.00,,,0.00,meteohub,2013-08-28 02:10:00,
2013-08-27 21:15:00,79.0,73.8,29.91,West,270,4.0,14.0,84,0.00,,,0.00,meteohub,2013-08-28 02:15:00,
2013-08-27 21:21:00,79.0,73.8,29.91,NW,315,4.0,11.0,84,0.00,,,0.00,meteohub,2013-08-28 02:21:00,
2013-08-27 21:26:00,79.2,73.9,29.91,NW,315,6.0,8.0,84,0.00,,,0.00,meteohub,2013-08-28 02:26:00,
2013-08-27 21:31:00,79.2,73.9,29.91,West,270,8.0,8.0,84,0.00,,,0.00,meteohub,2013-08-28 02:31:00,
2013-08-27 21:36:00,79.0,73.8,29.90,West,270,3.0,9.0,84,0.00,,,0.00,meteohub,2013-08-28 02:36:00,
2013-08-27 21:41:00,79.0,74.1,29.91,NW,315,4.0,9.0,85,0.00,,,0.00,meteohub,2013-08-28 02:41:00,
2013-08-27 21:46:00,78.8,74.7,29.92,North,0,10.0,11.0,87,0.00,,,0.00,meteohub,2013-08-28 02:46:00,
2013-08-27 21:51:00,78.6,74.8,29.91,NW,315,10.0,11.0,88,0.00,,,0.00,meteohub,2013-08-28 02:51:00,
2013-08-27 21:57:00,78.4,74.8,29.92,NW,315,9.0,11.0,89,0.00,,,0.00,meteohub,2013-08-28 02:57:00,
2013-08-27 22:02:00,78.3,75.0,29.91,NW,315,6.0,10.0,90,0.00,,,0.00,meteohub,2013-08-28 03:02:00,
2013-08-27 22:07:00,78.1,75.6,29.92,NW,315,4.0,10.0,92,0.00,,,0.00,meteohub,2013-08-28 03:07:00,
2013-08-27 22:12:00,78.1,75.9,29.91,North,0,8.0,9.0,93,0.00,,,0.00,meteohub,2013-08-28 03:12:00,
2013-08-27 22:17:00,77.9,76.1,29.91,West,270,7.0,9.0,94,0.00,,,0.00,meteohub,2013-08-28 03:17:00,
2013-08-27 22:19:00,77.7,75.9,29.91,NW,315,8.0,9.0,94,0.00,,,0.00,meteohub,2013-08-28 03:19:00,
2013-08-27 22:32:00,77.5,75.9,29.91,NW,315,9.0,11.0,95,0.00,,,0.00,meteohub,2013-08-28 03:32:00,
2013-08-27 22:37:00,77.5,76.3,29.91,NW,315,9.0,11.0,96,0.00,,,0.00,meteohub,2013-08-28 03:37:00,
2013-08-27 22:42:00,77.4,76.8,29.91,West,270,8.0,9.0,98,0.00,,,0.00,meteohub,2013-08-28 03:42:00,
2013-08-27 22:47:00,77.2,76.6,29.91,NW,315,11.0,11.0,98,0.00,,,0.00,meteohub,2013-08-28 03:47:00,
2013-08-27 22:52:00,77.2,76.6,29.91,North,0,10.0,11.0,98,0.00,,,0.00,meteohub,2013-08-28 03:52:00,
2013-08-27 22:57:00,77.0,76.1,29.91,North,0,11.0,11.0,97,0.00,,,0.00,meteohub,2013-08-28 03:57:00,
2013-08-27 23:01:00,77.2,75.9,29.91,NNE,23,8.0,11.0,96,0.00,,,0.00,meteohub,2013-08-28 04:01:00,
2013-08-27 23:03:00,77.0,75.4,29.91,NW,315,8.0,11.0,95,0.00,,,0.00,meteohub,2013-08-28 04:03:00,
2013-08-27 23:04:00,77.2,75.6,29.91,North,0,9.0,11.0,95,0.00,,,0.00,meteohub,2013-08-28 04:04:00,
2013-08-27 23:10:00,77.2,74.7,29.92,North,0,4.0,11.0,92,0.00,,,0.00,meteohub,2013-08-28 04:10:00,
2013-08-27 23:15:00,77.4,74.5,29.91,NW,315,9.0,11.0,91,0.00,,,0.00,meteohub,2013-08-28 04:15:00,
2013-08-27 23:20:00,77.4,74.1,29.93,NW,315,10.0,10.0,90,0.00,,,0.00,meteohub,2013-08-28 04:20:00,
2013-08-27 23:25:00,77.4,74.5,29.92,NW,315,12.0,12.0,91,0.00,,,0.00,meteohub,2013-08-28 04:25:00,
2013-08-27 23:30:00,77.2,74.3,29.92,West,270,6.0,12.0,91,0.00,,,0.00,meteohub,2013-08-28 04:30:00,
2013-08-27 23:35:00,77.0,74.5,29.93,NW,315,7.0,12.0,92,0.00,,,0.00,meteohub,2013-08-28 04:35:00,
2013-08-27 23:40:00,76.8,74.7,29.93,NE,45,5.0,14.0,93,0.00,,,0.00,meteohub,2013-08-28 04:40:00,
2013-08-27 23:45:00,76.6,74.8,29.92,North,0,11.0,14.0,94,0.00,,,0.00,meteohub,2013-08-28 04:45:00,
2013-08-27 23:50:00,76.6,75.0,29.93,North,0,8.0,14.0,95,0.00,,,0.00,meteohub,2013-08-28 04:50:00,
2013-08-27 23:56:00,76.3,74.7,29.92,North,0,4.0,11.0,95,0.00,,,0.00,meteohub,2013-08-28 04:56:00,